Regional Weather Roundup
Issued by NWS

Home | Current Version | Previous Version | Graphics & Text | Print | Product List | Glossary On
Versions: 1 2 3 4 5 6 7 8 9 10 11 12 13 14 15 16 17 18 19 20 21 22 23 24 25 26 27 28 29 30 31 32 33 34 35 36 37 38 39 40 41 42 43 44 45 46 47 48 49 50
560
ASUS45 KTFX 230210
RWRMT
MONTANA REGIONAL WEATHER ROUNDUP
NATIONAL WEATHER SERVICE GREAT FALLS MT
700 PM MST THU FEB 22 2018

NOTE: "FAIR" INDICATES FEW OR NO CLOUDS BELOW 12000 FEET WITH NO
SIGNIFICANT WEATHER AND/OR OBSTRUCTIONS TO VISIBILITY.

MTZ001>007-043-230300-
WEST OF THE DIVIDE

CITY           SKY/WX    TMP DP  RH WIND       PRES   REMARKS
KALISPELL      FAIR      19   4  51 N13       30.11R WCI   6
MISSOULA       CLOUDY    21   8  57 N14       30.07R WCI   8
BUTTE          CLOUDY    15   7  70 CALM      29.93R
MULLAN PASS    FAIR       8   5  87 CALM      29.91R
ANACONDA         N/A     12   3  67 N7        29.98R WCI   2
DEER LODGE       N/A     12   3  67 NW9       30.01S WCI   0
HAMILTON         N/A     18  10  73 MISG      30.03R
PLAINS           N/A     19   6  57 CALM      30.14R
RONAN            N/A      5   3  92 CALM      30.14R
$$

MTZ008-052>055-230300-
SOUTHWEST MONTANA

CITY           SKY/WX    TMP DP  RH WIND       PRES   REMARKS
BOZEMAN        FAIR      12   5  73 S5        30.03R
DILLON         FAIR       8   8 100 NE10      29.92R WCI  -6
ENNIS          CLOUDY     7   3  85 CALM      29.98R
W YELLOWSTONE  CLOUDY     9   5  85 CALM      29.86R
THREE FORKS      N/A      7  -2  66 CALM      30.03R
TWIN BRIDGES     N/A     16   5  61 N18       29.93  WCI   0
$$

MTZ009-010-012-014-046-048-049-054-230300-
EAST SLOPES AND CENTRAL MONTANA

CITY           SKY/WX    TMP DP  RH WIND       PRES   REMARKS
CUT BANK       FAIR       6   2  83 W3        30.14F
GREAT FALLS    MOCLDY     2  -3  80 SW3       30.17R
MALMSTROM AFB  CLEAR      4  -1  78 MISG      30.20R
HELENA         MOCLDY    11  -1  58 W12       30.11R WCI  -3
AUGUSTA        MOCLDY    -2  -4  90 CALM      30.11R
CHOTEAU          N/A      9   5  85 CALM      30.16S
CONRAD           N/A      3  -2  80 W6        30.17  WCI  -8
RAYNESFORD     FAIR       4  -1  77 CALM      30.14R
WHITE SULPHUR    N/A      5   1  85 SW3       30.01R
$$

MTZ011-013-016-021-045-047-050-051-230300-
NORTH CENTRAL MONTANA

CITY           SKY/WX    TMP DP  RH WIND       PRES   REMARKS
HAVRE          FAIR      -5 -10  79 W6        30.25R WCI -18
LEWISTOWN      FAIR      -2  -6  83 SW8       30.13R WCI -17
N BAR RANCH    FAIR       7  -6  56 NW5       30.11R
CHINOOK          N/A     -8 -13  77 CALM      30.27S
GEYSER         MOCLDY     4  -2  75 SW10      30.13R WCI -11
STANFORD       FAIR       1  -2  85 W3        30.11R
$$

MTZ017>020-022>027-061-062-230300-
NORTHEAST MONTANA

CITY           SKY/WX    TMP DP  RH WIND       PRES   REMARKS
GLASGOW        FAIR     -10 -15  78 N10       30.24R WCI -29
GLENDIVE       FAIR       2  -4  76 NW8       30.21R WCI -12
JORDAN           N/A     -8 -14  74 VRB5      30.22R
MALTA          CLEAR    -11 -17  77 W7        30.26R WCI -26
SIDNEY         FAIR       1  -6  72 W5        30.25R
WOLF POINT     FAIR      -5 -13  68 SW13      30.28R WCI -24
PLENTYWOOD       N/A      9   0  66 NW3       30.20R
POPLAR           N/A     -8 -15  71 W7        30.28R WCI -22
SCOBEY           N/A     -2 -13  59 CALM      30.16R
$$

MTZ028>42-056>058-230300-
SOUTHCENTRAL AND SOUTHEAST MONTANA

CITY           SKY/WX    TMP DP  RH WIND       PRES   REMARKS
BAKER          FAIR      -1  -4  87 W9        30.15R WCI -16
BILLINGS       FAIR       9   1  70 NE9       30.14R WCI  -4
LIVINGSTON     FAIR      11   2  67 E14       30.04R WCI  -5
MILES CITY     FAIR      -5  -9  83 W12       30.21R WCI -23
BIG TIMBER     CLOUDY     9   0  66 NE8       30.10S WCI  -4
EKALAKA          N/A      3  -6  66 W2        30.07R
FORSYTH          N/A      0  -6  78 SW3       30.23R
LAUREL           N/A      9   1  72 N10       30.16R WCI  -6
$$

REGIONAL REPORTS...DAKOTAS

CITY           SKY/WX    TMP DP  RH WIND       PRES   REMARKS
WILLISTON      FAIR       0  -6  76 CALM      30.24R
MINOT          FAIR       7   0  73 SW3       30.19S
DICKINSON      FAIR       8   3  80 NW9       30.12R WCI  -5
BEACH          FAIR       1  -4  78 NW7       30.19R WCI -11
CROSBY         FAIR      -4  -9  77 SW7       30.22S WCI -18
TIOGA          FAIR      -2  -4  92 W5        30.20S
WATFORD CITY   FAIR      -2  -8  78 SW5       30.21S
BISMARCK       CLOUDY    16   9  74 CALM      30.22S
GRAND FORKS    MOCLDY    19  14  81 S5        30.28F
FARGO          CLOUDY    23  14  68 SE5       30.27F
BUFFALO SD       N/A      9   0  67 NW6       30.06R WCI  -1
RAPID CITY     FAIR       4  -2  76 NW7       30.08R WCI  -8
$$

REGIONAL REPORTS...WYOMING/IDAHO/WASHINGTON

CITY           SKY/WX    TMP DP  RH WIND       PRES   REMARKS
GILLETTE       FAIR       6  -2  69 CALM      30.04R
SHERIDAN       FAIR      11   1  64 S5        30.09R
BUFFALO WY     FAIR      13  -4  46 W3        30.03R
CODY           FAIR       9   2  73 NE6       30.02R WCI  -1
YELLOWSTONE LA   N/A      1  -2  87 CALM      29.87R
IDAHO FALLS    FAIR      26  13  57 S12       29.94R WCI  16
SALMON         CLOUDY    29  19  66 SW14      29.90  WCI  18
BOISE          FAIR      28  14  55 CALM      30.04R
SPOKANE        MOCLDY    24  15  68 W8        30.17R WCI  15
$$

REGIONAL REPORTS...ALBERTA

CITY           SKY/WX    TMP DP  RH WIND       PRES   REMARKS
CALGARY        PTCLDY    12   7  79 S7        30.10F WCI   2
CARDSTON         N/A      0  -6  78 SW1         N/A
EDMONTON       CLEAR     19   9  63 SW6       30.10F WCI  11
FORT MCMURRAY  PTCLDY    19   9  63 SW7       30.01F WCI  10
HIGH LEVEL     PTCLDY    23   7  50 S6        29.84F WCI  16
LETHBRIDGE     PTCLDY     3   0  85 SW12      30.18F WCI -13
LLOYDMINSTER   PTCLDY     9   7  92 SW9       30.13F WCI  -5
MEDICINE HAT   MOCLDY     9   5  85 SW5       30.24S
MILK RIVER       N/A      1  -2  85 NW7         N/A  WCI -11
ONEFOUR          N/A      3   1  92 NW12        N/A  WCI -13
PEACE RIVER    MOCLDY    14   3  62 SW7       29.95F WCI   4
PINCHER CREEK  CLEAR      0  -4  85 S2        30.12S
WATERTON GATE    N/A      1  -6  71 S2          N/A
$$

REGIONAL REPORTS...SASKATCHEWAN

CITY           SKY/WX    TMP DP  RH WIND       PRES   REMARKS
CYPRESS HILLS    N/A      7   3  85 NW3         N/A
ESTEVAN        CLEAR     -4  -8  84 SW6       30.20S WCI -16
MOOSE JAW        N/A      5   0  78 SW9         N/A  WCI  -9
PRINCE ALBERT  PTCLDY     9   1  72 CALM      30.19R
REGINA         FLURRIES   7   3  85 NW6       30.19R WCI  -3
ROCKGLEN         N/A      9   3  78 NW9         N/A  WCI  -5
SASKATOON      PTCLDY     5   1  85 W8        30.21R WCI  -8
SWIFT CURRENT  CLOUDY    10   7  85 W14       30.15F WCI  -5
VAL MARIE        N/A    -17 -24  70 N1          N/A
$$




USA.gov is the U.S. government's official web portal to all federal, state and local government web resources and services.